Change the Weather History Date:

Tuesday, March 4, 2014

  Actual Average Record
Temperature  
Mean Temperature 12 °F -  
Max Temperature 19 °F 28 °F 44 °F (2005)
Min Temperature 5 °F 15 °F -4 °F (2015)
Degree Days  
Heating Degree Days 53    
Moisture  
Dew Point 7 °F    
Average Humidity 71    
Maximum Humidity 86    
Minimum Humidity 62    
Precipitation  
Precipitation 0.00 in - - ()
Sea Level Pressure  
Sea Level Pressure 30.09 in    
Wind  
Wind Speed 8 mph (East)    
Max Wind Speed 15 mph    
Max Gust Speed 18 mph    
Visibility 8 miles    
Events Snow    
Averages and records for this station are not official NWS values.
T = Trace of Precipitation, MM = Missing Value Source: NWS Daily Summary

Daily Weather History Graph

Daily Weather History Graph

Search for Another Location

Airport or City:

Trip Planner

Search our weather history database for the weather conditions in past years. The results will help you decide how hot, cold, wet, or windy it might be!

Date:

Astronomy

Mar. 04, 2014 Rise Set
Actual Time 6:51 AM CST 6:12 PM CST
Civil Twilight 6:22 AM CST 6:41 PM CST
Nautical Twilight 5:49 AM CST 7:14 PM CST
Astronomical Twilight 5:16 AM CST 7:47 PM CST
Moon 8:30 AM CST (3/4) 10:29 PM CST (3/4)
Length of Visible Light 12h 18m
Length of Day
11h 21m
Waxing Crescent, 15% of the Moon is Illuminated
Mar 4
Waxing Crescent
Mar 8
First Quarter
Mar 16
Full
Mar 23
Last Quarter
Mar 30
New

Hourly Weather History & Observations

Time (CST) Temp. Windchill Dew Point Humidity Pressure Visibility Wind Dir Wind Speed Gust Speed Precip Events Conditions
12:12 AM 8.6 °F -3.7 °F 1.4 °F 73% 30.10 in 10.0 mi South 8.1 mph - N/A   Scattered Clouds
12:33 AM 10.4 °F -1.5 °F 1.4 °F 67% 30.10 in 10.0 mi South 8.1 mph - N/A   Clear
12:53 AM 8.6 °F -4.7 °F 1.4 °F 73% 30.09 in 10.0 mi South 9.2 mph - N/A   Clear
1:12 AM 10.4 °F -2.4 °F 1.4 °F 67% 30.09 in 10.0 mi South 9.2 mph - N/A   Scattered Clouds
1:33 AM 10.4 °F -2.4 °F 1.4 °F 67% 30.08 in 10.0 mi South 9.2 mph - N/A   Mostly Cloudy
1:52 AM 10.4 °F -2.4 °F 1.4 °F 67% 30.08 in 10.0 mi SSE 9.2 mph - N/A   Overcast
2:13 AM 10.4 °F -4.1 °F 1.4 °F 67% 30.07 in 10.0 mi South 11.5 mph - N/A   Overcast
2:32 AM 10.4 °F -3.3 °F 1.4 °F 67% 30.07 in 10.0 mi South 10.4 mph - N/A   Overcast
2:52 AM 10.4 °F -3.3 °F 1.4 °F 67% 30.07 in 10.0 mi South 10.4 mph - N/A   Overcast
3:12 AM 10.4 °F -2.4 °F 1.4 °F 67% 30.06 in 10.0 mi South 9.2 mph - N/A   Overcast
3:32 AM 10.4 °F -2.4 °F 1.4 °F 67% 30.05 in 10.0 mi South 9.2 mph - N/A   Overcast
3:53 AM 10.4 °F -0.4 °F 1.4 °F 67% 30.06 in 10.0 mi South 6.9 mph - N/A   Overcast
4:12 AM 10.4 °F -1.5 °F 3.2 °F 73% 30.06 in 10.0 mi South 8.1 mph - N/A   Overcast
4:32 AM 10.4 °F -0.4 °F 1.4 °F 67% 30.05 in 10.0 mi South 6.9 mph - N/A   Overcast
4:53 AM 10.4 °F 0.8 °F 1.4 °F 67% 30.05 in 10.0 mi South 5.8 mph - N/A   Overcast
5:12 AM 10.4 °F 4.0 °F 1.4 °F 67% 30.06 in 10.0 mi SSW 3.5 mph - N/A   Mostly Cloudy
5:32 AM 10.4 °F - 1.4 °F 67% 30.06 in 10.0 mi Calm Calm - N/A   Scattered Clouds
5:53 AM 10.4 °F - 1.4 °F 67% 30.06 in 10.0 mi Calm Calm - N/A   Clear
6:12 AM 8.6 °F 2.0 °F 1.4 °F 73% 30.06 in 10.0 mi ESE 3.5 mph - N/A   Clear
6:32 AM 6.8 °F -0.1 °F -0.4 °F 72% 30.05 in 10.0 mi ESE 3.5 mph - N/A   Clear
6:53 AM 6.8 °F -2.0 °F -0.4 °F 72% 30.06 in 10.0 mi ESE 4.6 mph - N/A   Clear
7:13 AM 5.0 °F -5.6 °F -0.4 °F 78% 30.04 in 10.0 mi ESE 5.8 mph - N/A   Clear
7:32 AM 5.0 °F -5.6 °F -0.4 °F 78% 30.05 in 10.0 mi ESE 5.8 mph - N/A   Clear
7:53 AM 5.0 °F - -0.4 °F 78% 30.08 in 10.0 mi Calm Calm - N/A   Clear
8:13 AM 8.6 °F - 1.4 °F 73% 30.08 in 10.0 mi Calm Calm - N/A   Clear
8:32 AM 8.6 °F - 1.4 °F 73% 30.08 in 10.0 mi Calm Calm - N/A   Clear
8:53 AM 10.4 °F - 1.4 °F 67% 30.08 in 10.0 mi Calm Calm - N/A   Clear
9:12 AM 10.4 °F 2.2 °F 1.4 °F 67% 30.07 in 10.0 mi East 4.6 mph - N/A   Clear
9:33 AM 10.4 °F 4.0 °F 3.2 °F 73% 30.07 in 10.0 mi ENE 3.5 mph - N/A   Clear
9:53 AM 12.2 °F 6.1 °F 3.2 °F 67% 30.07 in 10.0 mi East 3.5 mph - N/A   Clear
10:12 AM 12.2 °F 6.1 °F 3.2 °F 67% 30.07 in 10.0 mi East 3.5 mph - N/A   Clear
10:33 AM 14.0 °F 6.5 °F 5.0 °F 67% 30.08 in 10.0 mi NE 4.6 mph - N/A   Mostly Cloudy
10:53 AM 14.0 °F - 5.0 °F 67% 30.09 in 10.0 mi Calm Calm - N/A   Scattered Clouds
11:12 AM 15.8 °F 6.1 °F 5.0 °F 62% 30.08 in 10.0 mi ENE 6.9 mph - N/A   Scattered Clouds
11:33 AM 17.6 °F 8.2 °F 6.8 °F 63% 30.08 in 10.0 mi NE 6.9 mph - N/A   Overcast
11:53 AM 17.6 °F 5.0 °F 6.8 °F 63% 30.06 in 10.0 mi ENE 11.5 mph - N/A   Overcast
12:12 PM 19.4 °F 7.9 °F 8.6 °F 63% 30.06 in 10.0 mi ENE 10.4 mph - N/A   Overcast
12:33 PM 19.4 °F 7.2 °F 8.6 °F 63% 30.05 in 10.0 mi ENE 11.5 mph - N/A   Scattered Clouds
12:52 PM 19.4 °F 7.2 °F 8.6 °F 63% 30.04 in 10.0 mi East 11.5 mph - N/A   Scattered Clouds
1:12 PM 19.4 °F 6.6 °F 8.6 °F 63% 30.04 in 10.0 mi East 12.7 mph - N/A   Scattered Clouds
1:32 PM 19.4 °F 6.0 °F 8.6 °F 63% 30.03 in 10.0 mi East 13.8 mph - N/A   Mostly Cloudy
1:52 PM 19.4 °F 7.2 °F 8.6 °F 63% 30.05 in 10.0 mi East 11.5 mph - N/A   Overcast
2:13 PM 19.4 °F 7.9 °F 8.6 °F 63% 30.07 in 10.0 mi East 10.4 mph - N/A   Mostly Cloudy
2:32 PM 19.4 °F 5.5 °F 8.6 °F 63% 30.06 in 10.0 mi East 15.0 mph - N/A   Mostly Cloudy
2:52 PM 19.4 °F 6.0 °F 8.6 °F 63% 30.07 in 10.0 mi East 13.8 mph - N/A   Overcast
3:13 PM 19.4 °F 6.0 °F 10.4 °F 68% 30.07 in 10.0 mi East 13.8 mph - N/A   Overcast
3:32 PM 19.4 °F 6.6 °F 10.4 °F 68% 30.07 in 10.0 mi East 12.7 mph - N/A   Overcast
3:52 PM 19.4 °F 6.0 °F 10.4 °F 68% 30.07 in 10.0 mi East 13.8 mph - N/A   Overcast
4:13 PM 19.4 °F 6.0 °F 10.4 °F 68% 30.07 in 10.0 mi East 13.8 mph - N/A   Overcast
4:32 PM 19.4 °F 6.6 °F 10.4 °F 68% 30.07 in 10.0 mi East 12.7 mph - N/A   Overcast
4:52 PM 19.4 °F 6.0 °F 10.4 °F 68% 30.07 in 10.0 mi East 13.8 mph 18.4 mph N/A   Overcast
5:13 PM 19.4 °F 6.6 °F 10.4 °F 68% 30.08 in 4.0 mi East 12.7 mph - N/A Snow Light Snow
5:32 PM 19.4 °F 6.6 °F 10.4 °F 68% 30.08 in 3.0 mi East 12.7 mph - N/A Snow Light Snow
5:53 PM 19.4 °F 7.2 °F 12.2 °F 74% 30.09 in 1.0 mi East 11.5 mph - N/A Snow Light Snow
6:13 PM 17.6 °F 4.3 °F 14.0 °F 86% 30.08 in 0.5 mi ENE 12.7 mph - N/A Snow Snow
6:32 PM 17.6 °F 5.7 °F 14.0 °F 86% 30.10 in 1.5 mi East 10.4 mph - N/A Snow Light Snow
6:53 PM 17.6 °F 5.0 °F 14.0 °F 86% 30.11 in 1.0 mi East 11.5 mph - N/A Snow Snow
7:12 PM 17.6 °F 5.7 °F 14.0 °F 86% 30.12 in 1.0 mi East 10.4 mph - N/A Snow Snow
7:32 PM 17.6 °F 5.0 °F 12.2 °F 79% 30.12 in 1.0 mi East 11.5 mph - N/A Snow Snow
7:53 PM 17.6 °F 6.4 °F 12.2 °F 79% 30.11 in 1.5 mi East 9.2 mph - N/A Snow Light Snow
8:12 PM 17.6 °F 5.7 °F 12.2 °F 79% 30.11 in 1.5 mi East 10.4 mph - N/A Snow Light Snow
8:32 PM 17.6 °F 5.7 °F 12.2 °F 79% 30.12 in 1.5 mi East 10.4 mph - N/A Snow Light Snow
8:53 PM 17.6 °F 5.7 °F 12.2 °F 79% 30.12 in 1.2 mi ENE 10.4 mph - N/A Snow Light Snow
9:12 PM 17.6 °F 5.0 °F 12.2 °F 79% 30.13 in 0.8 mi East 11.5 mph - N/A Snow Snow
9:32 PM 17.6 °F 5.0 °F 12.2 °F 79% 30.15 in 0.8 mi ENE 11.5 mph - N/A Snow Snow
9:53 PM 17.6 °F 5.7 °F 12.2 °F 79% 30.17 in 0.8 mi ENE 10.4 mph - N/A Snow Snow
10:12 PM 17.6 °F 7.3 °F 12.2 °F 79% 30.18 in 0.8 mi ENE 8.1 mph - N/A Snow Snow
10:32 PM 17.6 °F 7.3 °F 12.2 °F 79% 30.20 in 0.8 mi ENE 8.1 mph - N/A Snow Snow
10:53 PM 17.6 °F 7.3 °F 12.2 °F 79% 30.20 in 1.0 mi ENE 8.1 mph - N/A Snow Snow
11:12 PM 17.6 °F 7.3 °F 12.2 °F 79% 30.20 in 0.8 mi NE 8.1 mph - N/A Snow Snow
11:33 PM 17.6 °F 6.4 °F 12.2 °F 79% 30.19 in 1.2 mi ENE 9.2 mph - N/A Snow Snow
11:52 PM 17.6 °F 5.0 °F 12.2 °F 79% 30.19 in 1.2 mi ENE 11.5 mph - N/A Snow Light Snow